Temperature
17 16 16 16 16 16 16 16 16 16 16 16 16 16 16 16 16 15 15 15 15 15 15 15 15 15 15 15 15 15 15 15 15 15 15 15 15 15 15 15 15 15 15
17 16 16 16 16 16 16 16 16 16 16 16 15 15 15 15 15 15 15 15 15 15 15 15 15 15 15 15 15 15 15 15 15 15 15 15 15 15 15 15 15 15 15
17 16 16 16 16 16 16 16 16 15 15 15 15 15 15 15 15 15 15 15 15 15 15 15 15 15 15 15 15 15 15 15 15 15 15 14 14 14 14 14 14 14 14
16 16 16 16 16 16 16 15 15 15 15 15 15 15 15 15 15 15 15 15 15 15 15 15 14 14 15 14 14 14 15 14 14 14 14 14 14 14 14 14 14 14 14
16 16 16 16 16 16 15 15 15 15 15 15 15 15 15 15 15 15 15 15 15 14 14 14 14 14 14 14 14 14 14 14 14 14 14 14 14 14 14 14 14 14 14
16 16 16 16 15 15 15 15 15 15 15 15 15 15 15 15 15 15 15 14 14 14 14 14 14 14 14 14 14 14 14 14 14 14 14 14 14 14 14 14 14 14 14
16 16 16 15 15 15 15 15 15 15 15 15 15 15 15 15 15 15 15 14 14 14 14 14 14 14 14 14 14 14 14 14 14 13 13 13 13 13 14 14 14 14 14
16 16 15 15 15 15 15 15 15 15 15 15 15 15 14 14 15 15 14 14 14 14 14 14 14 13 14 14 14 14 13 13 13 13 13 13 13 13 13 13 13 13 13
16 16 15 15 15 15 15 15 14 14 14 14 14 14 14 14 14 14 14 14 14 14 14 14 13 13 13 13 13 13 13 13 13 13 13 13 13 13 13 13 13 13 13
16 15 15 15 15 15 14 14 14 14 14 14 14 14 14 14 14 14 14 14 14 14 14 14 13 13 13 13 13 13 13 13 13 13 13 13 13 13 13 13 13 12 13
15 15 15 15 15 15 14 14 14 14 14 14 14 14 14 14 14 14 14 14 14 14 14 13 13 13 13 13 13 13 13 13 13 13 13 13 13 12 12 12 12 12 12
15 15 15 15 15 14 14 14 14 14 14 14 14 14 14 14 14 14 13 13 13 13 13 13 13 13 13 13 13 13 13 13 13 13 13 13 12 12 12 12 12 12 12
15 15 15 15 14 14 14 14 14 14 14 13 13 13 13 13 13 13 13 13 13 13 13 13 13 13 13 13 13 13 12 12 12 12 13 12 12 12 12 12 12 12 12
15 15 14 14 14 14 14 14 14 14 14 13 13 13 13 13 13 13 13 13 12 13 13 13 13 13 13 12 12 12 12 12 12 12 12 12 12 12 12 12 12 12 12
15 15 14 14 14 14 14 14 13 13 13 13 13 13 13 13 12 12 12 12 12 12 12 12 12 12 12 12 12 12 12 12 12 12 12 12 12 12 12 12 12 12 12
15 15 14 14 14 14 14 14 13 13 13 13 13 13 12 12 12 12 12 12 12 12 12 12 12 12 12 12 12 12 12 11 11 12 12 12 12 12 12 12 11 11 11
15 14 14 14 14 13 13 13 13 13 13 13 12 12 12 12 12 12 12 12 12 11 11 11 11 12 11 11 11 11 11 11 11 11 11 11 11 11 11 11 11 11 11
14 14 14 14 14 13 13 13 13 13 12 12 12 12 12 12 11 11 11 11 11 11 11 11 11 11 11 11 11 11 11 11 11 11 11 11 11 11 11 11 11 11 11
14 14 14 14 13 13 13 13 12 12 12 12 12 12 11 11 11 11 11 11 11 11 10 11 10 10 10 11 11 11 11 11 11 11 11 11 11 11 11 11 11 11 11
14 14 14 14 13 13 13 12 12 12 12 12 12 11 11 11 11 11 11 11 10 10 10 10 10 10 10 10 10 10 10 10 10 10 10 10 10 10 10 10 11 10 10
14 14 13 13 13 13 12 12 12 12 12 11 11 11 11 11 11 11 10 10 10 10 10 10 10 10 10 10 10 10 10 10 10 10 10 10 10 10 10 10 10 10 10
13 13 13 13 13 13 12 12 12 12 11 11 11 11 11 11 10 10 10 10 10 10 9 9 9 9 9 9 9 9 9 9 9 10 10 10 10 10 10 10 10 10 10
13 13 13 13 13 12 12 12 11 11 11 10 10 10 10 10 10 10 10 10 9 9 9 9 9 9 9 9 9 9 9 9 9 9 9 9 9 10 10 10 10 10 9
12 12 12 12 12 12 12 11 11 11 11 10 10 10 10 10 10 10 10 9 9 9 9 9 9 9 9 9 9 9 9 9 9 9 9 9 9 9 9 9 9 9 9
12 12 12 12 12 11 11 11 11 11 10 10 10 10 10 9 9 9 9 9 9 9 9 9 9 9 8 8 8 8 8 8 9 9 8 8 9 9 9 9 9 9 9
11 11 11 11 11 11 11 11 11 10 10 9 9 9 9 9 9 9 9 9 9 9 9 9 8 8 8 8 8 8 8 8 8 8 8 8 8 8 8 8 8 8 8
Wind_Speed
2 3 3 3 3 3 2 2 3 4 4 5 5 5 5 6 7 8 8 11 11 11 11 11 10 10 10 10 9 9 9 9 8 8 8 7 7 8 7 7 6 5 5
3 3 3 3 3 3 3 3 3 3 3 3 4 4 5 5 6 7 8 9 10 10 10 10 9 9 9 8 8 8 8 8 8 8 7 7 7 6 6 6 6 6 6
4 4 3 3 2 4 5 4 4 3 3 4 4 4 4 4 5 5 7 8 8 9 9 9 9 8 8 8 8 7 7 7 8 8 8 8 7 7 6 6 6 6 6
6 4 3 3 3 4 3 3 3 3 3 4 4 3 3 3 4 4 5 6 7 7 8 8 8 8 7 7 6 6 7 7 7 7 7 7 7 7 7 6 6 5 5
6 4 2 2 4 3 3 3 4 3 3 3 3 2 3 3 2 3 4 6 7 7 7 8 7 7 6 6 6 6 6 6 6 6 7 7 7 6 6 6 5 5 5
5 4 2 3 4 3 3 3 3 3 2 2 3 3 2 1 2 2 3 4 5 6 7 7 6 5 5 5 5 5 6 5 5 5 5 6 6 6 6 6 6 5 4
4 3 3 3 3 3 3 3 3 3 2 2 2 2 2 1 2 2 2 3 3 5 6 6 6 6 6 5 5 5 5 4 4 5 5 5 5 5 5 5 5 5 4
4 3 3 3 3 3 4 3 3 2 1 1 1 1 1 2 3 2 1 2 2 3 3 5 6 6 6 6 5 5 4 4 4 4 3 4 4 4 4 4 5 5 5
2 2 3 3 3 3 2 2 2 2 1 2 2 1 1 1 1 2 1 1 2 2 2 4 5 6 6 6 6 5 4 3 3 3 2 2 2 3 3 3 4 4 4
2 3 3 2 3 2 2 1 2 1 2 1 2 2 1 1 1 1 2 1 2 1 1 2 3 5 6 6 6 5 5 4 2 2 2 1 1 2 2 2 3 4 3
2 3 3 2 2 2 2 2 2 2 1 1 1 1 2 2 1 1 1 2 1 1 1 1 2 4 5 6 5 5 6 4 3 2 1 1 1 1 2 2 2 3 3
1 2 2 2 2 2 2 2 2 2 2 2 1 1 0 0 1 1 0 1 1 1 1 0 1 3 5 6 6 6 6 5 3 2 1 1 1 2 2 3 3 3 4
2 2 2 1 2 2 2 2 2 2 1 1 1 1 1 1 0 1 1 1 1 1 1 1 1 4 4 6 6 6 6 5 3 2 1 1 1 2 3 3 4 4 4
3 3 3 2 2 2 2 2 1 1 1 2 1 1 1 1 1 1 1 0 1 2 1 2 0 2 4 6 6 6 5 5 4 4 3 2 2 3 4 4 5 5 5
2 3 3 3 3 2 2 2 1 1 1 2 1 1 1 0 1 0 1 1 1 1 2 2 1 1 3 4 5 4 4 4 4 5 5 4 4 4 4 5 5 5 5
3 3 3 3 3 3 2 2 2 1 2 1 1 1 1 1 1 1 1 1 0 1 2 2 2 1 1 1 2 2 3 4 4 5 6 6 6 6 6 6 5 5 6
3 3 3 3 3 3 3 2 1 0 1 1 1 1 1 1 1 1 1 1 1 0 1 3 2 1 1 1 0 1 2 3 4 6 7 7 7 7 7 7 7 6 6
3 3 3 2 2 2 2 3 2 1 1 1 1 1 1 1 1 0 1 1 1 1 1 2 2 2 1 1 1 2 2 3 4 6 7 6 7 8 8 8 8 8 7
2 3 3 3 2 2 2 2 1 1 1 0 0 1 1 2 1 1 1 1 1 2 1 1 2 2 2 2 1 2 3 2 3 4 6 7 8 8 9 8 8 8 8
2 2 3 3 2 2 2 2 1 0 1 0 1 1 1 2 1 1 1 1 1 1 2 1 2 2 2 2 1 1 3 3 4 3 3 5 7 8 8 9 9 8 8
2 3 2 2 2 2 2 2 1 0 1 1 1 1 2 3 2 1 1 1 1 1 1 1 2 2 2 2 2 2 3 3 4 2 2 3 3 4 6 8 9 9 9
2 2 2 2 3 2 3 3 2 1 0 1 1 1 2 3 2 2 1 1 0 1 1 1 2 2 2 2 2 2 2 3 3 3 2 3 2 3 4 5 7 8 8
2 3 2 3 3 3 4 3 3 2 1 1 1 1 1 1 2 1 1 1 1 2 2 2 2 3 2 2 1 2 3 3 4 4 2 4 3 3 4 6 7 6 7
2 2 3 4 4 3 3 3 2 1 1 1 1 2 2 2 1 1 1 2 2 2 3 3 2 2 2 2 2 3 4 4 4 3 1 3 3 3 4 4 7 6 7
2 2 3 3 4 3 3 3 2 0 1 1 1 2 3 2 2 3 1 1 2 2 3 3 3 3 4 4 3 1 2 2 3 3 1 1 3 3 3 3 5 7 7
2 2 2 2 3 4 4 3 1 0 0 1 1 2 3 3 2 2 1 1 2 2 3 3 3 4 3 4 4 2 2 2 2 3 3 1 2 2 3 3 2 4 6
Wind_Direction
91 90 87 88 94 101 88 58 64 64 60 64 69 67 69 78 88 92 94 95 94 94 92 89 86 83 85 82 78 74 70 71 72 75 78 80 77 73 71 72 72 67 62
83 79 79 75 71 71 79 74 67 62 60 67 59 66 73 75 86 99 109 104 102 102 100 96 92 88 86 84 80 75 72 73 74 75 79 80 76 72 68 68 66 64 62
90 82 75 77 71 65 62 62 59 59 62 65 61 58 71 77 83 98 111 114 110 105 106 104 99 92 86 83 81 77 77 74 76 78 77 76 71 69 66 67 64 61 59
79 73 63 66 72 64 66 63 51 54 56 61 54 46 55 72 81 102 109 114 116 111 110 114 109 101 93 87 85 83 82 79 80 79 77 75 70 67 63 63 59 57 54
87 86 72 69 75 66 56 63 57 55 60 64 63 56 49 58 59 90 95 105 113 118 115 115 114 110 103 96 94 92 86 81 80 80 78 76 72 67 59 55 52 55 56
83 89 83 74 79 76 65 68 73 65 61 64 59 65 60 68 47 78 96 97 115 125 125 120 119 115 115 105 102 98 90 85 84 86 82 76 70 66 59 49 46 47 51
90 82 71 76 71 74 75 75 72 81 59 64 60 35 28 46 72 73 93 100 97 106 122 130 125 117 118 120 102 102 96 93 91 96 88 78 71 65 56 48 42 40 44
91 100 102 92 84 74 66 68 71 64 28 42 75 72 43 13 4 36 80 120 111 100 99 105 109 110 115 113 111 107 99 102 101 100 91 81 68 62 53 44 40 38 36
105 107 104 104 109 101 99 93 92 87 52 5 37 63 96 169 333 342 355 75 95 94 90 97 108 113 112 114 114 119 114 107 110 107 100 86 65 54 46 45 34 26 26
104 92 104 105 100 102 114 115 90 97 95 30 5 14 40 107 118 319 323 5 80 103 124 103 91 96 108 112 118 128 129 120 113 98 87 81 55 38 28 30 26 15 10
123 111 101 89 97 101 97 81 86 62 72 78 53 20 11 2 8 131 286 320 354 358 81 104 127 107 118 126 129 138 143 136 118 98 68 28 0 1 357 354 353 350 354
135 119 108 106 107 107 100 94 94 73 58 56 43 48 73 350 322 43 210 280 287 294 318 155 139 128 124 125 131 143 150 149 146 136 108 349 333 329 325 325 321 321 328
149 142 119 134 113 116 120 119 113 128 118 106 77 31 26 4 11 45 54 335 322 291 286 267 182 146 140 135 138 150 162 168 176 181 197 273 302 312 311 308 309 307 308
171 163 156 144 120 113 115 120 113 147 151 143 126 104 48 340 47 86 110 70 337 317 305 278 276 134 140 146 155 163 176 190 200 205 216 237 264 283 296 299 302 298 296
166 147 142 138 127 115 96 105 123 107 94 90 90 108 107 117 60 64 115 140 148 296 292 289 343 61 126 133 158 171 184 208 214 220 230 239 249 262 276 286 294 294 290
152 148 152 149 134 130 114 95 83 60 80 83 101 94 50 37 46 27 342 312 222 204 260 293 297 314 80 114 175 200 207 216 219 234 242 243 246 256 264 272 276 282 284
154 145 135 126 137 143 125 120 131 118 133 167 195 137 133 104 75 9 354 350 339 338 261 291 304 329 10 54 39 257 223 204 217 238 247 248 247 253 261 263 263 267 272
140 133 127 132 140 130 126 134 160 186 198 184 188 128 112 99 104 41 357 316 304 292 226 282 305 329 323 266 223 248 256 240 224 242 243 243 253 257 262 263 260 259 261
135 132 130 136 136 133 130 131 160 197 188 192 157 111 85 92 83 62 28 347 313 319 322 284 295 313 318 327 333 301 308 297 286 263 240 244 252 259 264 263 261 260 258
134 127 128 134 138 138 122 112 97 105 106 56 64 87 80 79 75 66 27 7 355 349 340 327 310 307 306 320 359 334 318 308 302 298 268 262 257 260 264 267 266 266 264
138 136 129 124 123 122 98 76 86 115 135 102 84 90 98 88 72 87 72 19 15 349 317 305 299 309 312 338 326 308 313 309 295 286 298 273 255 252 265 266 263 266 268
134 124 123 119 109 103 106 84 51 1 183 169 166 140 127 107 87 89 63 35 206 226 261 268 277 283 279 272 297 311 309 323 301 294 294 280 267 257 256 255 260 263 266
131 130 130 120 114 109 105 89 42 17 307 223 186 155 123 84 93 89 354 336 295 261 247 234 258 264 264 262 260 282 283 282 271 274 285 271 269 264 263 267 260 259 260
143 145 134 128 125 122 110 83 34 1 291 277 212 159 144 119 63 44 347 291 271 272 251 242 237 257 267 273 254 253 262 280 281 284 278 262 278 281 282 264 251 249 252
143 134 128 131 134 135 128 108 63 247 301 321 22 67 89 101 60 42 28 307 296 290 283 278 261 264 276 289 307 319 314 320 302 294 301 258 277 292 280 262 261 256 258
149 138 144 147 141 143 139 128 98 121 283 348 66 83 79 74 50 35 13 300 289 287 293 298 293 286 284 294 301 270 244 270 289 290 293 280 292 322 303 286 293 281 271
Height
1526 1526 1527 1527 1527 1527 1527 1527 1527 1527 1527 1527 1527 1527 1528 1528 1528 1528 1529 1529 1529 1529 1529 1530 1530 1531 1531 1531 1531 1531 1532 1532 1532 1533 1533 1533 1534 1534 1534 1535 1535 1535 1535
1527 1527 1528 1528 1528 1528 1528 1528 1528 1528 1528 1528 1528 1529 1529 1529 1529 1529 1530 1530 1530 1530 1530 1531 1531 1531 1531 1531 1531 1531 1532 1532 1532 1532 1533 1533 1533 1534 1534 1535 1535 1535 1535
1528 1528 1528 1528 1529 1529 1529 1529 1529 1529 1529 1529 1529 1530 1530 1530 1530 1530 1531 1531 1531 1531 1531 1531 1531 1532 1532 1532 1532 1532 1532 1532 1532 1532 1533 1533 1533 1533 1534 1534 1534 1535 1534
1528 1528 1528 1529 1529 1529 1529 1529 1530 1530 1530 1530 1530 1531 1531 1531 1531 1531 1531 1531 1532 1532 1532 1532 1532 1532 1532 1532 1532 1532 1532 1532 1532 1532 1533 1533 1533 1533 1533 1534 1534 1534 1534
1528 1529 1529 1529 1529 1529 1530 1530 1530 1530 1530 1531 1531 1531 1532 1532 1532 1532 1532 1532 1532 1532 1532 1532 1532 1532 1532 1532 1532 1532 1532 1532 1532 1532 1533 1533 1533 1533 1533 1533 1533 1533 1533
1529 1529 1529 1529 1530 1530 1530 1530 1530 1531 1531 1531 1531 1532 1532 1532 1532 1532 1533 1533 1533 1533 1533 1532 1532 1532 1532 1532 1532 1532 1532 1532 1532 1532 1532 1533 1532 1532 1532 1532 1532 1532 1532
1529 1529 1529 1529 1530 1530 1530 1530 1531 1531 1531 1532 1532 1532 1532 1532 1532 1532 1533 1533 1533 1533 1533 1533 1533 1532 1532 1532 1531 1531 1531 1532 1532 1532 1532 1532 1532 1532 1532 1532 1531 1531 1531
1528 1529 1529 1529 1530 1530 1530 1530 1531 1531 1531 1532 1532 1532 1532 1534 1533 1533 1533 1533 1533 1533 1533 1533 1533 1532 1532 1532 1531 1531 1531 1531 1531 1531 1531 1531 1531 1531 1531 1531 1531 1531 1530
1528 1528 1529 1529 1529 1530 1530 1530 1530 1531 1531 1532 1532 1533 1533 1532 1533 1533 1533 1533 1533 1533 1533 1533 1532 1532 1532 1532 1531 1531 1531 1531 1531 1530 1530 1530 1530 1530 1530 1530 1530 1530 1529
1528 1528 1528 1529 1529 1529 1530 1530 1530 1531 1531 1531 1532 1532 1532 1532 1533 1533 1533 1533 1533 1533 1533 1533 1532 1532 1531 1531 1531 1531 1531 1530 1530 1530 1530 1529 1529 1529 1529 1529 1529 1529 1528
1527 1527 1528 1528 1529 1529 1529 1530 1530 1530 1530 1530 1531 1531 1531 1531 1532 1532 1532 1532 1532 1532 1532 1532 1532 1531 1531 1531 1530 1530 1530 1530 1529 1529 1529 1529 1528 1528 1528 1528 1528 1527 1527
1526 1526 1527 1527 1528 1528 1528 1529 1529 1529 1529 1530 1530 1530 1530 1531 1531 1531 1530 1530 1531 1531 1531 1531 1531 1530 1530 1530 1530 1529 1529 1529 1529 1528 1528 1527 1527 1527 1527 1526 1526 1526 1526
1524 1525 1525 1526 1527 1527 1527 1527 1528 1528 1528 1528 1529 1529 1529 1529 1530 1530 1530 1529 1530 1530 1530 1530 1530 1529 1529 1529 1529 1528 1528 1528 1528 1527 1527 1526 1526 1525 1525 1525 1524 1524 1523
1522 1523 1524 1524 1525 1526 1526 1526 1526 1527 1527 1527 1527 1528 1528 1528 1528 1529 1529 1529 1528 1529 1529 1529 1529 1529 1528 1528 1528 1527 1527 1527 1526 1526 1525 1524 1524 1523 1523 1523 1522 1522 1521
1521 1521 1522 1523 1523 1524 1524 1525 1525 1526 1526 1526 1526 1526 1526 1526 1527 1527 1527 1528 1528 1527 1527 1527 1527 1527 1526 1526 1526 1526 1525 1525 1524 1524 1523 1523 1522 1521 1521 1520 1520 1519 1519
1519 1520 1520 1521 1521 1522 1522 1523 1523 1524 1524 1524 1524 1525 1525 1525 1525 1525 1526 1526 1526 1526 1526 1525 1525 1525 1525 1524 1524 1524 1523 1523 1522 1522 1521 1521 1520 1519 1519 1518 1517 1516 1516
1517 1518 1519 1519 1520 1520 1521 1521 1522 1522 1522 1522 1523 1523 1523 1523 1523 1523 1524 1524 1524 1524 1523 1523 1523 1523 1523 1522 1522 1521 1521 1520 1520 1519 1519 1518 1517 1517 1516 1516 1515 1514 1513
1515 1516 1517 1517 1518 1519 1519 1519 1520 1520 1521 1521 1521 1521 1521 1521 1521 1521 1521 1522 1522 1522 1522 1521 1521 1521 1520 1520 1519 1519 1518 1518 1517 1517 1516 1516 1515 1514 1513 1513 1512 1512 1511
1513 1514 1515 1515 1516 1517 1517 1518 1518 1518 1519 1519 1519 1519 1519 1519 1519 1519 1519 1519 1519 1520 1520 1519 1518 1518 1518 1518 1517 1516 1516 1515 1515 1514 1513 1513 1512 1511 1511 1510 1509 1509 1508
1511 1512 1512 1513 1514 1515 1515 1515 1516 1516 1517 1517 1517 1517 1517 1517 1517 1517 1517 1517 1517 1517 1517 1517 1516 1516 1515 1515 1514 1513 1512 1512 1512 1511 1511 1510 1509 1509 1508 1507 1506 1505 1505
1508 1509 1510 1511 1512 1512 1513 1513 1514 1514 1514 1515 1515 1515 1515 1515 1515 1515 1515 1515 1515 1514 1514 1514 1514 1513 1513 1512 1511 1511 1510 1510 1509 1509 1508 1507 1506 1505 1504 1504 1503 1502 1501
1505 1506 1507 1508 1509 1510 1510 1511 1512 1512 1512 1512 1512 1513 1513 1513 1513 1512 1513 1512 1512 1512 1512 1511 1511 1511 1510 1510 1509 1509 1508 1507 1505 1506 1505 1504 1503 1502 1501 1501 1500 1499 1498
1503 1503 1504 1505 1506 1507 1508 1508 1509 1509 1510 1510 1510 1510 1510 1510 1510 1510 1510 1510 1509 1509 1509 1509 1509 1508 1508 1507 1507 1506 1505 1505 1504 1503 1502 1500 1500 1498 1498 1497 1497 1496 1495
1500 1500 1501 1502 1503 1504 1505 1506 1506 1506 1507 1507 1508 1508 1507 1507 1507 1507 1507 1506 1506 1506 1506 1506 1506 1505 1506 1505 1505 1504 1503 1502 1502 1501 1500 1498 1496 1495 1495 1494 1493 1493 1492
1496 1497 1498 1499 1501 1501 1502 1503 1503 1503 1504 1504 1505 1505 1504 1504 1504 1504 1504 1503 1503 1503 1503 1503 1503 1503 1502 1502 1502 1502 1500 1499 1498 1497 1497 1495 1494 1492 1491 1490 1490 1489 1488
1493 1494 1495 1496 1498 1498 1499 1500 1500 1500 1501 1501 1501 1502 1502 1502 1502 1501 1501 1500 1500 1500 1500 1499 1499 1499 1499 1499 1499 1498 1498 1496 1495 1494 1493 1493 1491 1490 1487 1487 1486 1485 1484